Weather History for Driggs, ID

Change the Weather History Date:

Monday, March 18, 2013

  Actual Average (KRXE) Record (KRXE)
Temperature  
Mean Temperature 20 °F 35 °F  
Max Temperature 30 °F 46 °F 63 °F (2004)
Min Temperature 9 °F 25 °F 14 °F (2002)
Degree Days  
Heating Degree Days 46 30  
Month to date heating degree days 605  
Since 1 July heating degree days 6578  
Cooling Degree Days 0 0  
Month to date cooling degree days 0  
Year to date cooling degree days 0  
Moisture  
Dew Point 12 °F    
Average Humidity 65    
Maximum Humidity 77    
Minimum Humidity 56    
Precipitation  
Precipitation 0.00 in 0.03 in 0.90 in (1993)
Month to date precipitation 0.52  
Year to date precipitation 2.09  
Sea Level Pressure  
Sea Level Pressure 30.00 in    
Wind  
Wind Speed 10 mph (SSW)    
Max Wind Speed 21 mph    
Max Gust Speed 30 mph    
Visibility 9 miles    
Events Snow    
T = Trace of Precipitation, MM = Missing Value Source: NWS Daily Summary

Daily Weather History Graph

Daily Weather History Graph

Search for Another Location

Airport:

Trip Planner

Search our weather history database for the weather conditions in past years. The results will help you decide how hot, cold, wet, or windy it might be!

Date:

Astronomy

Mar. 18, 2013 Rise Set
Actual Time 7:30 AM MDT 7:34 PM MDT
Civil Twilight 7:02 AM MDT 8:03 PM MDT
Nautical Twilight 6:28 AM MDT 8:36 PM MDT
Astronomical Twilight 5:54 AM MDT 9:11 PM MDT
Moon 11:22 AM MDT (3/18) 1:47 AM MDT (3/18)
Length of Visible Light 13h 01m
Length of Day
12h 04m
Waxing Crescent, 41% of the Moon is Illuminated
Mar 18
Waxing Crescent
Mar 19
First Quarter
Mar 27
Full
Apr 2
Last Quarter
Apr 10
New

Hourly Weather History & Observations

Time (MDT) Temp. Windchill Dew Point Humidity Pressure Visibility Wind Dir Wind Speed Gust Speed Precip Events Conditions
12:56 AM 15.1 °F 4.2 °F 6.1 °F 68% 30.00 in 10.0 mi South 8.1 mph - N/A   Clear
1:56 AM 9.1 °F 2.6 °F 2.1 °F 73% 30.03 in 10.0 mi ESE 3.5 mph - N/A   Clear
2:56 AM 10.0 °F -0.9 °F 4.1 °F 77% 30.03 in 10.0 mi SSE 6.9 mph - N/A   Clear
3:56 AM 11.1 °F 3.1 °F 4.1 °F 73% 30.02 in 10.0 mi ENE 4.6 mph - N/A   Scattered Clouds
4:56 AM 15.1 °F 7.7 °F 7.2 °F 71% 30.01 in 10.0 mi SE 4.6 mph - N/A   Clear
5:56 AM 17.1 °F 6.6 °F 7.2 °F 65% 29.99 in 10.0 mi South 8.1 mph - N/A   Partly Cloudy
6:56 AM 17.1 °F 6.6 °F 7.2 °F 65% 30.03 in 10.0 mi South 8.1 mph - N/A   Mostly Cloudy
7:56 AM 15.1 °F 2.5 °F 7.2 °F 71% 30.05 in 10.0 mi SSE 10.4 mph - N/A   Scattered Clouds
8:56 AM 19.0 °F 6.8 °F 8.1 °F 62% 30.04 in 10.0 mi South 11.5 mph - N/A   Scattered Clouds
9:56 AM 20.1 °F 7.5 °F 10.0 °F 65% 30.07 in 10.0 mi South 12.7 mph - N/A   Mostly Cloudy
10:56 AM 23.0 °F 13.1 °F 10.0 °F 58% 30.08 in 10.0 mi South 9.2 mph - N/A   Mostly Cloudy
11:56 AM 25.2 °F 15.7 °F 12.0 °F 58% 30.05 in 10.0 mi SW 9.2 mph - N/A   Mostly Cloudy
12:56 PM 25.2 °F 13.3 °F 14.0 °F 63% 30.04 in 10.0 mi SW 13.8 mph 18.4 mph N/A   Mostly Cloudy
1:44 PM 28.4 °F 17.0 °F 15.8 °F 59% 29.95 in 10.0 mi WSW 15.0 mph - N/A   Partly Cloudy
1:56 PM 28.0 °F 16.5 °F 14.0 °F 56% 30.04 in 10.0 mi WSW 15.0 mph - N/A   Clear
2:05 PM 28.4 °F 18.0 °F 15.8 °F 59% 29.95 in 10.0 mi SW 12.7 mph - N/A   Partly Cloudy
2:56 PM 28.0 °F 18.6 °F 16.2 °F 61% 30.02 in 5.0 mi West 10.4 mph 23.0 mph 0.00 in Snow Light Snow
3:56 PM 28.0 °F 16.5 °F 18.1 °F 66% 29.99 in 10.0 mi SW 15.0 mph - 0.00 in   Mostly Cloudy
4:06 PM 28.4 °F 16.2 °F 19.4 °F 69% 29.91 in 4.0 mi SW 17.3 mph 24.2 mph 0.00 in Snow Light Snow
4:56 PM 28.0 °F 19.3 °F 20.1 °F 72% 29.97 in 5.0 mi SSW 9.2 mph - 0.00 in Snow Light Snow
5:10 PM 28.4 °F 19.1 °F 21.2 °F 74% 29.92 in 8.0 mi SSE 10.4 mph - 0.00 in Snow Light Snow
5:56 PM 30.0 °F 21.1 °F 19.0 °F 64% 29.94 in 10.0 mi SW 10.4 mph - 0.00 in   Mostly Cloudy
6:56 PM 29.1 °F 17.5 °F 19.0 °F 66% 29.94 in 10.0 mi SW 16.1 mph 24.2 mph N/A   Scattered Clouds
7:56 PM 28.0 °F 14.9 °F 16.2 °F 61% 29.94 in 10.0 mi SW 19.6 mph 27.6 mph N/A   Clear
8:56 PM 28.0 °F 14.6 °F 16.2 °F 61% 29.94 in 10.0 mi SW 20.7 mph 29.9 mph N/A   Clear
9:56 PM 26.1 °F 15.6 °F 14.0 °F 60% 29.99 in 10.0 mi SW 11.5 mph - N/A   Clear
10:56 PM 24.1 °F 13.1 °F 11.1 °F 58% 30.02 in 10.0 mi West 11.5 mph - N/A   Clear
11:56 PM 12.0 °F 0.5 °F 5.0 °F 73% 30.10 in 10.0 mi East 8.1 mph - N/A   Clear